sat.trackr.live / text

‹ back to catalog

UNICORN-2R

NORAD 68477 · 2026-067BP

PAYLOAD ACTIVE UNKNOWN

§ Identity

Operator
Country
GER
Launch date
2026-03-30
Launch site
AFWTR
Launch vehicle
Mass (kg)
RCS (m²)

External: N2YO · Heavens-Above · Gunter

§ Orbital elements

Epoch: 2026-09-20T03:16:46.045056Z

Period
96.45 min
Inclination
97.7586°
Eccentricity
0.0006048
Mean motion
14.93071976 rev/d
Perigee alt
584.2 km
Apogee alt
592.6 km
Semi-major
6,966.5 km
B*
5.7105e-4
RAAN
219.8448°
Arg perigee
104.5499°
Mean anomaly
255.6392°
Rev number
2,529

§ Raw data

UNICORN-2R1 68477U 26067BP  26263.13664404  .00005894  00000+0  57105-3 0  99962 68477  97.7586 219.8448 0006048 104.5499 255.6392 14.93071976 25299

JSON: /api/v1/satellites/68477 · /tle

For live sub-satellite position, see the globe view (requires WebGL).

§ Visibility from observer

Set your observer location to see the next 7 days of passes ≥ 10°. The values pass through the URL so the page stays shareable.

No JS? Fill the form by hand. The geolocation button needs JavaScript.